Location: Estherville
(43.4020°N, 94.8330°W)
Time: 03:30:30
(UTC-05:00)

Envisat - Visible Passes

Search period start: 23 September 2018 00:00
Search period end: 03 October 2018 00:00
Orbit: 764 x 766 km, 98.2° (Epoch: 22 September)

Date Brightness Start Highest point End Pass type
(mag) Time Alt. Az. Time Alt. Az. Time Alt. Az.
23 Sep 3.0 19:58:21 10° SSE 20:03:20 61° ENE 20:08:21 10° N visible
23 Sep 5.7 21:39:33 10° SW 21:42:46 17° W 21:46:00 10° NW visible
24 Sep 4.5 21:01:04 10° SSW 21:05:43 36° W 21:10:24 10° NNW visible
25 Sep 3.1 20:23:47 10° S 20:28:51 79° WSW 20:33:58 10° NNW visible
26 Sep 3.2 19:47:21 10° SE 19:52:12 48° ENE 19:57:05 10° N visible
26 Sep 5.4 21:27:40 10° SW 21:31:28 21° W 21:35:18 10° NW visible
27 Sep 4.1 20:49:38 10° S 20:54:29 45° W 20:59:22 10° NNW visible
28 Sep 2.9 20:12:37 10° SSE 20:17:41 83° ENE 20:22:47 10° NNW visible
28 Sep 5.9 21:55:28 10° WSW 21:57:20 12° W 21:59:13 10° WNW visible
29 Sep 3.5 19:36:25 10° SE 19:41:05 39° ENE 19:45:47 10° N visible
29 Sep 5.0 21:15:58 10° SSW 21:20:12 26° W 21:24:28 10° NW visible
30 Sep 3.6 20:38:16 10° S 20:43:16 57° W 20:48:17 10° NNW visible
01 Oct 3.0 20:01:30 10° SSE 20:06:31 67° ENE 20:11:34 10° N visible
01 Oct 5.8 21:43:05 10° SW 21:46:01 15° W 21:48:58 10° NW visible
02 Oct 3.8 19:25:33 10° SE 19:30:00 31° ENE 19:34:26 10° N visible
02 Oct 4.6 21:04:23 10° SSW 21:08:56 33° W 21:13:31 10° NNW visible
